www.pogodaiklimat.ru

Погода и климат >> Архив погоды >> Аргентина >> San Miguel de Tucuman


ПОГОДА в San Miguel de Tucuman

  • Прогноз погоды в San Miguel de Tucuman
  • Монитор погоды в San Miguel de Tucuman
  • Климат города

АРХИВ ПОГОДЫ в San Miguel de Tucuman

Время (UTC), дата Ветер
(напр.,м/с)
 
Видим.   Явления Облачность Т
(С)
Тd
(С)
f
(%)
Тe
(С)
Тes
(С)
Комфортность P
(гПа)
Po
(гПа)
Тmin
(С)
Tmax
(С)
R
(мм)
R24
(мм)
S
(см)
03 9.07 СВ 2 7000 м дым 8/8 1050 м
[Sc]
+8.2 +5.6 84 +7 +7 1035.2 980.8
06 9.07 СВ 3 8000 м дым 5/5 1200 м
[Sc]
+6.2 +3.7 84 +3 +3 1035.2 981.2
09 9.07 С 1 8000 м дым 9/9 1200 м
[Sc]
+6.6 +4.4 86 +6 +6 1034.6 980.6
12 9.07 С 3 9000 м дым 6/3 1200 м
[Sc Ac As]
+5.6 +4.2 91 +2 +2 1036.2 981.7 +5.2 +8.2
15 9.07 ЮВ 2 12 км 9/9 1050 м
[Cu hum]
+11.6 +4.8 63 +11 +12 1035.9 982.0
18 9.07 В 3 12 км 8/8 1050 м
[Cu hum]
+13.0 +3.5 52 +12 +13 1032.7 978.9
21 9.07 В 4 12 км 9/9 1200 м
[Sc]
+13.1 +3.4 52 +12 +12 1030.9 977.2
00 10.07 штиль 0 10 км 10/10 1200 м
[Sc]
+10.5 +5.2 70 +10 +10 1032.4 978.2 +5.6 +14.6
03 10.07 СВ 3 8000 м дым 10/8 1350 м
[Sc Ac As]
+9.4 +3.6 67 +7 +7 1031.9 978.2
06 10.07 С 1 8000 м дым 3/0
[Ac As]
+6.2 +3.7 84 +5 +5 1030.2 976.3
09 10.07 С 3 12 км 4/4 900 м
[Sc]
+5.4 +2.6 82 +2 +2 1028.3 974.6
12 10.07 СВ 3 12 км 9/9 1350 м
[Sc]
+6.9 +3.2 77 +4 +4 1028.7 974.9 +3.0 +10.5
15 10.07 СВ 2 10 км 9/9 1050 м
[Cu Sc]
+10.7 +3.7 62 +10 +10 1027.9 974.4
18 10.07 С 2 9000 м 9/9 1200 м
[Sc]
+13.9 +4.0 51 +14 +14 1024.2 970.9
00 11.07 З 2 10 км ясно +8.5 +4.6 76 +7 +7 1022.2 968.6 +6.9 +14.8
03 11.07 С 2 10 км ясно +4.6 +2.7 87 +2 +2 1021.9 968.2
06 11.07 С 3 12 км ясно +5.2 +2.3 82 +2 +2 1019.1 966.0
09 11.07 В 2 12 км ясно +4.2 +1.8 84 +1 +1 1018.3 965.2
12 11.07 С 3 8000 м дымка 9/0
[Ac trans Cs]
+4.4 +1.5 81 +1 +1 1020.5 966.6 +2.6 +8.5
15 11.07 ЮВ 2 6000 м дым 9/0
[Ac trans Cs]
+10.0 +5.3 73 +9 +14 1021.2 967.4
18 11.07 ЮЗ 2 6000 м дым 9/0
[Ac trans Cs]
+12.8 +5.8 62 +12 +17 1019.2 966.0
21 11.07 штиль 0 7000 м дым 8/4 1200 м
[Sc Ac trans Cs]
+14.2 +5.1 54 +14 +14 1019.3 966.1
00 12.07 С 3 6000 м дым 5/3 1200 м
[Sc Ac As]
+8.1 +5.1 81 +6 +6 1021.3 967.4 +4.4 +14.4
03 12.07 СЗ 2 5000 м дым 4/3 1200 м
[Sc Ac As]
+5.4 +3.6 88 +3 +3 1022.0 968.4
06 12.07 С 2 8000 м дым ясно +4.0 +2.6 91 +1 +1 1021.5 968.0 0.0 +21.2
09 12.07 С 4 8000 м дым ясно +4.1 +2.9 92 -1 -1 1020.2 966.9
12 12.07 С 5 12 км ясно +4.4 +2.2 86 -1 -0 1021.0 967.2 +3.0 +8.1
15 12.07 штиль 0 50 км ?/? +14.2 +8.0 66 +14 +14 1020.5 967.3
18 12.07 СВ 2 9000 м дым ясно +18.9 +5.5 41 +20 +27 1015.5 962.9
21 12.07 Ю 4 8000 м дым ясно +20.0 +6.3 41 +21 +21 комфорт 1015.1 962.6
00 13.07 штиль 0 8000 м дым ясно +12.4 +7.2 71 +12 +12 1016.3 963.0 +4.4 +20.6
03 13.07 С 2 8000 м ясно +8.6 +5.2 79 +7 +7 1016.9 964.2
06 13.07 С 3 12 км ясно +7.2 +4.5 83 +4 +4 1015.8 963.4
09 13.07 С 4 12 км ясно +6.4 +3.2 80 +3 +3 1014.6 962.4
12 13.07 С 6 12 км ясно +6.8 +2.9 76 +2 +3 1016.3 963.3 +5.0 +12.4
15 13.07 СВ 2 12 км ясно +18.3 +7.2 48 +19 +27 1016.0 963.7
18 13.07 ЮВ 3 8000 м дым ясно +20.8 +7.0 41 +22 +29 комфорт 1013.8 961.7
21 13.07 штиль 0 8000 м дым ясно +21.8 +8.4 42 +23 +23 комфорт 1012.2 960.2
00 14.07 С 3 6000 м дым ясно +13.2 +7.9 70 +12 +12 1013.0 960.2 +6.8 +22.2
03 14.07 С 5 8000 м дым ясно +9.6 +6.7 82 +7 +7 1011.4 959.4
06 14.07 СЗ 2 8000 м ясно +10.9 0.0 47 +10 +10 1004.7 958.1
09 14.07 СЗ 3 9000 м дым ясно +9.8 +5.6 75 +8 +8 1007.3 955.8
12 14.07 С 4 10 км ясно +9.6 +5.8 77 +7 +7 1008.7 956.4 +7.4 +13.2
15 14.07 СЗ 3 7000 м дым ясно +20.4 +8.6 47 +22 +29 комфорт 1007.4 955.8
18 14.07 Ю 2 7000 м дым ясно +23.8 +9.1 39 +25 +32 комфорт 1004.2 953.2
21 14.07 З 2 7000 м дым ясно +24.2 +10.2 41 +25 +26 комфорт 1002.8 951.8
00 15.07 С 4 7000 м дым ясно +13.8 +8.4 70 +12 +12 1005.5 953.4 +9.6 +25.0
03 15.07 С 3 5000 м дым ясно +13.3 +9.3 77 +12 +12 1005.7 954.5
06 15.07 С 3 7000 м дым ясно +11.4 +4.8 64 +10 +10 1005.9 954.8
09 15.07 СЗ 4 8000 м дым ясно +9.2 +6.7 84 +6 +6 1006.5 955.3
12 15.07 СЗ 3 8000 м дымка туман ясно +9.6 +6.3 80 +8 +8 1012.3 959.8 +7.4 +13.8
15 15.07 Ю 5 8000 м дым ясно +22.0 +10.1 47 +24 +29 комфорт 1013.3 961.8
18 15.07 Ю 4 8000 м дым ясно +24.2 +10.8 43 +25 +31 комфорт 1011.3 960.0
21 15.07 Ю 4 8000 м дым ясно +23.8 +11.0 45 +25 +25 комфорт 1011.8 960.2
00 16.07 В 3 8000 м дым 5/0
[Ac trans]
+18.0 +9.1 56 +18 +18 1016.1 963.8 +9.6 +25.0

 

Местоположение метеостанции San Miguel de Tucuman (Аргентина): широта -26.85 долгота -65.09 высота над уровнем моря 450 м.

В архиве по умолчанию представлена погода в San Miguel de Tucuman за последнюю неделю. Архивные данные за месяц целиком и за предыдущие месяцы, начиная с января 2011 года, Вы можете получить, выбрав интересующий диапазон дат из раскрывающегося списка и нажав кнопку "Ввод!".


*Определитесь, кто Вы:
робот инопланетянин человек

Внимание! Время в таблицах - всемирное. Для получения местного времени необходимо прибавить поправку, которая в San Miguel de Tucuman равна -3 ч.

Смотрите также архив погоды в соседних городах и на ближайших метеорологических станциях:

Погода в Santiago del Estero (Аргентина) (128 км)
Погода в San Fernando del Valle de Catamarca (Аргентина) (206 км)
Погода в Salta (Аргентина) (226 км)
Погода в San Salvador de Jujuy (Аргентина) (275 км)
Погода в La Rioja (Аргентина) (328 км)
Погода в Villa de Maria del Rio Seco (Аргентина) (366 км)
Погода в Chamical (Аргентина) (407 км)
Погода в San Ramon de la Nueva Oran (Аргентина) (419 км)
Погода в Ceres (Аргентина) (456 км)
Погода в Presidencia Roque Saenz Pena (Аргентина) (458 км)

Пояснения к столбцам:

Ветер - указаны скорость ветра в м/с - средняя за 10 мин, порывы в срок и между сроками (в фигурных скобках) и направление, откуда дует ветер: С - северный, СВ - северо-восточный, В - восточный, ЮВ - юго-восточный, Ю - южный, ЮЗ - юго-западный, З - западный, СЗ - северо-западный.
Видимость - горизонтальная дальность видимости в метрах или километрах. При видимости от 1 до 10 км при отсутствии осадков обычно наблюдается дымка, при ухудшении видимости до 1 км и менее - туман. В сухую погоду видимость может ухудшаться дымом, пылью или мглою.
Явления - указаны атмосферные явления, наблюдавшиеся в срок или в последний час перед сроком; фигурными скобками обозначены явления, наблюдавшиеся между сроками (за 1-3 часа до срока); квадратными скобками обозначены град или гололедные отложения с указанием их диаметра в мм.
Облачность - указаны через наклонную черту общая и нижняя облачность в баллах и высота нижней границы облаков в метрах; квадратными скобками обозначены формы облаков: Ci - перистые, Cs - перисто-слоистые, Cc - перисто-кучевые, Ac - высококучевые, As - высокослоистые, Sc - слоисто-кучевые, Ns - слоисто-дождевые, Cu - кучевые, Cb - кучево-дождевые. Подробнее классификацию облаков см. в Атласе облаков (PDF).
T - Температура воздуха - температура, измеренная на высоте 2 м над землей.
Td - Температура точки росы - температура, при понижении до которой содержащийся в воздухе водяной пар достигнет насыщения.
f - Относительная влажность воздуха - влажноcть воздуха, измеренная на высоте 2 м над землей.
Te - Эффективная температура - температура, которую ощущает одетый по сезону человек в тени. Характеристика душности погоды. При расчете учитывается влияние влажности воздуха и скорости ветра на теплоощущения человека.
Tes - Эффективная температура на солнце - температура, которую ощущает человек, с поправкой на солнечный нагрев. Характеристика знойности погоды. Зависит от высоты солнца над горизонтом, облачности и скорости ветра. Ночью, в пасмурную погоду, а также при ветре 12 м/с и более поправка равна нулю.
P - Атмосферное давление - приведенное к уровню моря атмосферное давление.
Po - Атмосферное давление - измеренное на уровне метеостанции атмосферное давление.
Tmin - Минимальная температура - минимум температуры воздуха на высоте 2 м над землей.
Tmax - Максимальная температура - максимум температуры воздуха на высоте 2 м над землей.
R - Количество осадков - Количество выпавших осадков за период времени, мм. При наведении курсора мыши на число - период времени, за который выпало указанное количество осадков.
R24 - Количество осадков - Количество выпавших осадков за 24 часа, мм.
S - Снежный покров - Высота снежного покрова, см. При наведении курсора мыши на число - состояние снежного покрова и степень покрытия местности в баллах.